CHEFSAT (43044 NORAD) Tracking and Keplerian Element Data

This shows tracking and keplerian element data for the satellite.

Feedback or suggestion? Click here.




ElementValue
Catalog43044
NameCHEFSAT
Epoch Orbit5339
Epoch Day322.65205307
Epoch Year2018
RAAN6.5175
Inclination51.6406
Eccentricity0.0005239
Argument of Perigee103.1527
Mean Anonmoly257.0043
Mean Motion15.41378847
Decay Rate5.173E-05
L11 43044U 17071H 18322.65205307 .00005173 00000-0 13143-3 0 9996
L22 43044 51.6406 6.5175 0005239 103.1527 257.0043 15.41378847 53390

Live tracking and technical data element details for CHEFSAT (NORAD 43044). CHEFSAT can be tracked NOW for your location showing map with azimuth and elevation plus other details from your city location.

Track the satellite on the map from your city or location and see movement details for azimuth, elevation, latitude, longitude, range, height, and movement on the map or in text.







IsCatalogInMostPopularTable: catalog: 43044, numindb: 143
Update: records affected: 1



GetName: 43044 CHEFSAT

Hit Count: updated at: Wed, 21 Nov 2018 06:37:23 GMT